User: anonymous   Login
Location: Astronight Observatory
(42.6003°N, 71.2981°W)
Time: 11:22:37
(UTC-04:00)
Language:

DELTA 2 R/B (1) - Orbit

View from above orbital plane
View from above orbital plane
View from above satellite
View from above satellite

Ground track
Ground track

The orbit data is extracted from the following two-line orbital elements,

1 27665U 03005C   16177.20926310  .00000034  00000-0  47279-4 0  9999
2 27665  39.5750 127.8796 0008341 114.3398  19.2950 14.28410852699872
Epoch (UTC): 25 June 2016 05:01:20
Eccentricity: 0.0008341
inclination: 39.5750°
perigee height: 791 km
apogee height: 803 km
right ascension of ascending node: 127.8796°
argument of perigee: 114.3398°
revolutions per day: 14.28410852
mean anomaly at epoch: 19.2950°
orbit number at epoch: 69987

The dashed part of the orbit path shows where the satellite is in the earth's shadow,  

DLR